STARLINK-1682 (46577 NORAD) Tracking and Keplerian Element Data

This shows tracking and keplerian element data for the satellite.

Feedback or suggestion? Click here.




ElementValue
Catalog46577
NameSTARLINK-1682
Epoch Orbit181
Epoch Day335.83336806
Epoch Year2020
RAAN170.5731
Inclination52.9991
Eccentricity0.0002002
Argument of Perigee28.1678
Mean Anonmoly19.045
Mean Motion15.62797696
Decay Rate-0.00107237
L11 46577U 20070AX 20335.83336806 -.00107237 00000-0 -11786-2 0 9995
L22 46577 52.9991 170.5731 0002002 28.1678 19.0450 15.62797696 1813

Live tracking and technical data element details for STARLINK-1682 (NORAD 46577). STARLINK-1682 can be tracked NOW for your location showing map with azimuth and elevation plus other details from your city location.

Track the satellite on the map from your city or location and see movement details for azimuth, elevation, latitude, longitude, range, height, and movement on the map or in text.







IsCatalogInMostPopularTable: catalog: 46577, numindb: 16
Update: records affected: 1



GetName: 46577 STARLINK-1682

Hit Count: updated at: Wed, 02 Dec 2020 06:50:08 GMT